PDA6111 LIRI-UKWW

Flight info

Callsign PDA6111
Flight time 1h 57m
Altitude 37000
Route GALTI DCT AIOSA DCT PODOB DCT MAVIT DCT TIDGA DCT ROMOL/K0843F370 P129 KOROP
Aircraft A320/M-VD/A

Departure

Time 2026-04-22 15:33
Airport Salerno Costa d'Amalfi Airport (LIRI)

Arrival

Time 2026-04-22 17:30
Airport Vinnytsia/Gavyryshivka International Airport (UKWW)
Time Latitude Longitude Altitude Speed Heading
2026-04-22 15:19 40.62136 14.92062 136 ft 0 kts 204°
2026-04-22 15:28 40.62134 14.92060 136 ft 2 kts 206°
2026-04-22 15:28 40.62119 14.92025 136 ft 7 kts 261°
2026-04-22 15:29 40.62130 14.91983 136 ft 2 kts 304°
2026-04-22 15:29 40.62149 14.91953 136 ft 7 kts 313°
2026-04-22 15:29 40.62200 14.91895 136 ft 12 kts 320°
2026-04-22 15:30 40.62239 14.91673 133 ft 22 kts 232°
2026-04-22 15:30 40.62130 14.91489 122 ft 29 kts 232°
2026-04-22 15:30 40.61991 14.91252 118 ft 36 kts 232°
2026-04-22 15:30 40.61832 14.90969 111 ft 41 kts 234°
2026-04-22 15:31 40.61658 14.90675 99 ft 41 kts 231°
2026-04-22 15:31 40.61519 14.90437 90 ft 28 kts 233°
2026-04-22 15:31 40.61442 14.90291 88 ft 8 kts 232°
2026-04-22 15:31 40.61432 14.90299 88 ft 1 kts 63°
2026-04-22 15:32 40.61444 14.90316 89 ft 15 kts 50°
2026-04-22 15:32 40.61672 14.90694 100 ft 86 kts 53°
2026-04-22 15:32 40.62150 14.91503 165 ft 131 kts 51°
2026-04-22 15:32 40.62714 14.92459 711 ft 138 kts 52°
2026-04-22 15:33 40.63140 14.93604 1355 ft 146 kts 75°
2026-04-22 15:33 40.62968 14.95041 1597 ft 178 kts 117°
2026-04-22 15:33 40.61939 14.96137 1869 ft 211 kts 157°
2026-04-22 15:33 40.60405 14.96107 2347 ft 232 kts 203°
2026-04-22 15:34 40.59176 14.94744 2998 ft 238 kts 243°
2026-04-22 15:34 40.58830 14.92674 3702 ft 231 kts 280°
2026-04-22 15:34 40.59101 14.90684 4721 ft 219 kts 286°
2026-04-22 15:34 40.59232 14.88677 5504 ft 226 kts 260°
2026-04-22 15:35 40.58917 14.87294 5819 ft 242 kts 256°
2026-04-22 15:35 40.58945 14.84331 6410 ft 255 kts 299°
2026-04-22 15:35 40.60154 14.82667 7152 ft 257 kts 333°
2026-04-22 15:35 40.61919 14.82251 7928 ft 268 kts
2026-04-22 15:36 40.63641 14.83285 8708 ft 284 kts 37°
2026-04-22 15:36 40.64742 14.85511 9449 ft 303 kts 69°
2026-04-22 15:36 40.65079 14.88267 10123 ft 313 kts 78°
2026-04-22 15:36 40.65560 14.91146 10358 ft 331 kts 67°
2026-04-22 15:37 40.66488 14.94013 10528 ft 349 kts 56°
2026-04-22 15:37 40.67860 14.96731 10770 ft 362 kts 49°
2026-04-22 15:37 40.69370 14.99419 11337 ft 368 kts 47°
2026-04-22 15:37 40.70917 15.02131 12051 ft 371 kts 47°
2026-04-22 15:38 40.72485 15.04864 12633 ft 376 kts 46°
2026-04-22 15:38 40.75675 15.10447 13924 ft 385 kts 46°
2026-04-22 15:38 40.77267 15.13257 14451 ft 390 kts 46°
2026-04-22 15:39 40.78892 15.16138 14976 ft 392 kts 46°
2026-04-22 15:39 40.80523 15.19036 15502 ft 395 kts 46°
2026-04-22 15:39 40.82168 15.21951 16007 ft 398 kts 45°
2026-04-22 15:39 40.83832 15.24898 16511 ft 402 kts 45°
2026-04-22 15:40 40.85519 15.27893 17048 ft 406 kts 45°
2026-04-22 15:40 40.87211 15.30907 17554 ft 411 kts 45°
2026-04-22 15:40 40.88922 15.33958 18085 ft 415 kts 45°
2026-04-22 15:40 40.90653 15.37048 18589 ft 419 kts 45°
2026-04-22 15:41 40.92395 15.40153 19050 ft 422 kts 45°
2026-04-22 15:41 40.94152 15.43282 19516 ft 426 kts 45°
2026-04-22 15:41 40.95927 15.46447 20027 ft 430 kts 45°
2026-04-22 15:41 40.97714 15.49641 20504 ft 433 kts 45°
2026-04-22 15:42 40.99511 15.52860 20919 ft 437 kts 45°
2026-04-22 15:42 41.01325 15.56117 21355 ft 440 kts 45°
2026-04-22 15:42 41.03152 15.59403 21782 ft 444 kts 45°
2026-04-22 15:42 41.04992 15.62710 22197 ft 447 kts 45°
2026-04-22 15:43 41.06840 15.66032 22611 ft 450 kts 45°
2026-04-22 15:43 41.08705 15.69385 23014 ft 454 kts 45°
2026-04-22 15:43 41.10590 15.72776 23398 ft 458 kts 45°
2026-04-22 15:43 41.12488 15.76197 23779 ft 461 kts 44°
2026-04-22 15:44 41.14392 15.79637 24120 ft 465 kts 44°
2026-04-22 15:44 41.16309 15.83110 24459 ft 467 kts 44°
2026-04-22 15:44 41.18228 15.86589 24792 ft 469 kts 44°
2026-04-22 15:44 41.20162 15.90098 25121 ft 471 kts 44°
2026-04-22 15:45 41.22101 15.93619 25451 ft 473 kts 44°
2026-04-22 15:45 41.24025 15.97111 25774 ft 475 kts 44°
2026-04-22 15:45 41.25985 16.00670 26120 ft 477 kts 44°
2026-04-22 15:45 41.27954 16.04249 26500 ft 480 kts 44°
2026-04-22 15:46 41.29924 16.07837 26838 ft 483 kts 44°
2026-04-22 15:46 41.31908 16.11461 27167 ft 485 kts 44°
2026-04-22 15:46 41.33230 16.13880 27385 ft 487 kts 44°
2026-04-22 15:46 41.35221 16.17527 27723 ft 488 kts 44°
2026-04-22 15:47 41.37218 16.21187 28198 ft 487 kts 44°
2026-04-22 15:47 41.39853 16.26023 28835 ft 485 kts 44°
2026-04-22 15:47 41.41188 16.28473 29151 ft 484 kts 44°
2026-04-22 15:47 41.43164 16.32108 29623 ft 483 kts 44°
2026-04-22 15:48 41.45134 16.35737 30158 ft 483 kts 43°
2026-04-22 15:48 41.47099 16.39356 30537 ft 482 kts 43°
2026-04-22 15:48 41.49062 16.42975 30976 ft 480 kts 43°
2026-04-22 15:48 41.51019 16.46583 31445 ft 478 kts 43°
2026-04-22 15:49 41.52956 16.50172 31917 ft 475 kts 43°
2026-04-22 15:49 41.54882 16.53751 32410 ft 472 kts 43°
2026-04-22 15:49 41.56795 16.57298 32899 ft 469 kts 42°
2026-04-22 15:49 41.58699 16.60824 33393 ft 467 kts 42°
2026-04-22 15:50 41.60593 16.64341 33884 ft 464 kts 42°
2026-04-22 15:50 41.62471 16.67831 34316 ft 462 kts 42°
2026-04-22 15:50 41.64347 16.71315 34629 ft 462 kts 43°
2026-04-22 15:50 41.66223 16.74804 34873 ft 463 kts 43°
2026-04-22 15:51 41.68083 16.78271 35125 ft 464 kts 43°
2026-04-22 15:51 41.69962 16.81780 35391 ft 464 kts 43°
2026-04-22 15:51 41.71842 16.85297 35654 ft 465 kts 44°
2026-04-22 15:51 41.73722 16.88817 35916 ft 465 kts 44°
2026-04-22 15:52 41.75610 16.92353 36176 ft 466 kts 44°
2026-04-22 15:52 41.77493 16.95881 36438 ft 467 kts 44°
2026-04-22 15:52 41.79385 16.99429 36658 ft 467 kts 44°
2026-04-22 15:52 41.81267 17.02966 36911 ft 468 kts 45°
2026-04-22 15:53 41.83159 17.06527 37038 ft 470 kts 45°
2026-04-22 15:53 41.85075 17.10124 37044 ft 476 kts 45°
2026-04-22 15:53 41.88950 17.17427 37038 ft 481 kts 45°
2026-04-22 15:54 41.92933 17.24608 37055 ft 473 kts 37°
2026-04-22 15:54 41.95243 17.27608 37026 ft 462 kts 30°
2026-04-22 15:54 41.97698 17.30398 37032 ft 462 kts 30°
2026-04-22 15:55 42.02603 17.35991 37031 ft 463 kts 30°
2026-04-22 15:55 42.07502 17.41613 37034 ft 463 kts 31°
2026-04-22 15:56 42.12417 17.47274 37060 ft 464 kts 31°
2026-04-22 15:56 42.17329 17.52930 37049 ft 465 kts 31°
2026-04-22 15:57 42.22251 17.58612 37042 ft 465 kts 31°
2026-04-22 15:57 42.27162 17.64303 37061 ft 466 kts 32°
2026-04-22 15:58 42.32053 17.69972 37033 ft 466 kts 32°
2026-04-22 15:58 42.36970 17.75686 37036 ft 466 kts 32°
2026-04-22 15:59 42.41888 17.81412 37035 ft 466 kts 32°
2026-04-22 15:59 42.46802 17.87155 37039 ft 467 kts 33°
2026-04-22 16:00 42.51716 17.92908 37030 ft 466 kts 33°
2026-04-22 16:00 42.56629 17.98657 37026 ft 466 kts 33°
2026-04-22 16:01 42.61538 18.04428 37022 ft 466 kts 34°
2026-04-22 16:01 42.66425 18.10193 37019 ft 465 kts 34°
2026-04-22 16:02 42.71317 18.15958 37016 ft 465 kts 34°
2026-04-22 16:02 42.76171 18.21689 37048 ft 465 kts 34°
2026-04-22 16:03 42.81052 18.27472 37041 ft 465 kts 34°
2026-04-22 16:03 42.85922 18.33255 37044 ft 465 kts 34°
2026-04-22 16:04 42.90789 18.39053 37051 ft 464 kts 34°
2026-04-22 16:04 42.95654 18.44850 37067 ft 464 kts 34°
2026-04-22 16:05 43.00520 18.50656 37061 ft 465 kts 35°
2026-04-22 16:05 43.05381 18.56488 37073 ft 465 kts 35°
2026-04-22 16:06 43.10211 18.62283 37106 ft 465 kts 35°
2026-04-22 16:06 43.15069 18.68133 37108 ft 465 kts 35°
2026-04-22 16:07 43.19921 18.73987 37115 ft 465 kts 35°
2026-04-22 16:07 43.24775 18.79852 37132 ft 464 kts 35°
2026-04-22 16:08 43.29627 18.85726 37150 ft 466 kts 36°
2026-04-22 16:08 43.34470 18.91617 37136 ft 464 kts 36°
2026-04-22 16:09 43.39301 18.97501 37137 ft 465 kts 35°
2026-04-22 16:09 43.44143 19.03395 37160 ft 465 kts 36°
2026-04-22 16:10 43.48985 19.09302 37154 ft 465 kts 36°
2026-04-22 16:10 43.53807 19.15207 37150 ft 464 kts 36°
2026-04-22 16:11 43.58614 19.21078 37166 ft 464 kts 36°
2026-04-22 16:11 43.63450 19.26973 37158 ft 464 kts 36°
2026-04-22 16:12 43.68291 19.32886 37151 ft 464 kts 36°
2026-04-22 16:12 43.73119 19.38811 37172 ft 464 kts 36°
2026-04-22 16:13 43.77947 19.44736 37159 ft 464 kts 36°
2026-04-22 16:13 43.82769 19.50672 37157 ft 464 kts 36°
2026-04-22 16:14 43.87586 19.56625 37174 ft 464 kts 36°
2026-04-22 16:14 43.92368 19.62537 37166 ft 463 kts 37°
2026-04-22 16:15 43.97174 19.68492 37161 ft 463 kts 37°
2026-04-22 16:15 44.01975 19.74456 37151 ft 463 kts 37°
2026-04-22 16:16 44.06771 19.80432 37166 ft 463 kts 37°
2026-04-22 16:16 44.11562 19.86419 37158 ft 462 kts 37°
2026-04-22 16:17 44.16341 19.92393 37154 ft 462 kts 37°
2026-04-22 16:17 44.21126 19.98381 37171 ft 462 kts 38°
2026-04-22 16:18 44.25898 20.04378 37152 ft 462 kts 38°
2026-04-22 16:18 44.30661 20.10395 37154 ft 461 kts 38°
2026-04-22 16:19 44.35415 20.16401 37144 ft 461 kts 38°
2026-04-22 16:19 44.40174 20.22426 37160 ft 460 kts 38°
2026-04-22 16:20 44.44888 20.28401 37164 ft 460 kts 38°
2026-04-22 16:20 44.49632 20.34410 37152 ft 460 kts 38°
2026-04-22 16:21 44.54367 20.40444 37164 ft 460 kts 39°
2026-04-22 16:21 44.59094 20.46499 37161 ft 460 kts 39°
2026-04-22 16:22 44.66174 20.55568 37149 ft 459 kts 39°
2026-04-22 16:23 44.73239 20.64633 37145 ft 458 kts 39°
2026-04-22 16:23 44.77934 20.70684 37141 ft 458 kts 39°
2026-04-22 16:24 44.84969 20.79794 37138 ft 458 kts 39°
2026-04-22 16:25 44.89662 20.85869 37132 ft 458 kts 39°
2026-04-22 16:25 44.96697 20.95002 37132 ft 458 kts 39°
2026-04-22 16:26 45.01371 21.01104 37141 ft 457 kts 40°
2026-04-22 16:26 45.06010 21.07172 37134 ft 457 kts 40°
2026-04-22 16:27 45.10682 21.13289 37134 ft 457 kts 40°
2026-04-22 16:27 45.15348 21.19414 37131 ft 457 kts 40°
2026-04-22 16:28 45.20010 21.25559 37146 ft 457 kts 40°
2026-04-22 16:28 45.24655 21.31715 37138 ft 458 kts 41°
2026-04-22 16:29 45.29185 21.38108 37129 ft 458 kts 42°
2026-04-22 16:29 45.33720 21.44454 37135 ft 458 kts 41°
2026-04-22 16:30 45.38267 21.50800 37121 ft 458 kts 42°
2026-04-22 16:30 45.42764 21.57122 37126 ft 457 kts 42°
2026-04-22 16:31 45.47300 21.63550 37129 ft 457 kts 42°
2026-04-22 16:31 45.51781 21.69903 37127 ft 457 kts 42°
2026-04-22 16:32 45.56288 21.76301 37125 ft 456 kts 42°
2026-04-22 16:32 45.60777 21.82694 37118 ft 456 kts 42°
2026-04-22 16:33 45.65262 21.89096 37112 ft 455 kts 43°
2026-04-22 16:33 45.68977 21.94418 37125 ft 455 kts 43°
2026-04-22 16:34 45.73434 22.00812 37123 ft 454 kts 43°
2026-04-22 16:34 45.77891 22.07213 37114 ft 453 kts 43°
2026-04-22 16:35 45.82341 22.13616 37112 ft 453 kts 43°
2026-04-22 16:35 45.86777 22.20015 37117 ft 452 kts 43°
2026-04-22 16:36 45.91218 22.26428 37118 ft 452 kts 43°
2026-04-22 16:36 45.95646 22.32853 37114 ft 453 kts 43°
2026-04-22 16:37 46.00079 22.39302 37122 ft 453 kts 43°
2026-04-22 16:37 46.04507 22.45764 37117 ft 453 kts 43°
2026-04-22 16:38 46.08927 22.52232 37118 ft 452 kts 43°
2026-04-22 16:38 46.13314 22.58663 37117 ft 452 kts 43°
2026-04-22 16:39 46.17736 22.65137 37118 ft 452 kts 44°
2026-04-22 16:39 46.22135 22.71608 37119 ft 451 kts 44°
2026-04-22 16:40 46.26520 22.78076 37116 ft 451 kts 44°
2026-04-22 16:41 46.33080 22.87809 37123 ft 450 kts 43°
2026-04-22 16:41 46.37444 22.94291 37124 ft 449 kts 44°
2026-04-22 16:42 46.41772 23.00730 37121 ft 448 kts 44°
2026-04-22 16:42 46.46115 23.07217 37123 ft 448 kts 44°
2026-04-22 16:43 46.50452 23.13705 37122 ft 448 kts 44°
2026-04-22 16:43 46.54790 23.20204 37123 ft 448 kts 43°
2026-04-22 16:44 46.59131 23.26720 37113 ft 448 kts 44°
2026-04-22 16:44 46.63467 23.33259 37109 ft 449 kts 44°
2026-04-22 16:45 46.67799 23.39797 37112 ft 448 kts 44°
2026-04-22 16:45 46.72126 23.46334 37110 ft 448 kts 45°
2026-04-22 16:46 46.76412 23.52837 37107 ft 447 kts 45°
2026-04-22 16:46 46.80714 23.59386 37104 ft 446 kts 45°
2026-04-22 16:47 46.85007 23.65938 37107 ft 446 kts 45°
2026-04-22 16:47 46.89291 23.72484 37105 ft 445 kts 45°
2026-04-22 16:48 46.93570 23.79046 37102 ft 445 kts 45°
2026-04-22 16:48 46.97847 23.85630 37101 ft 445 kts 45°
2026-04-22 16:49 47.02083 23.92156 37102 ft 445 kts 45°
2026-04-22 16:49 47.06351 23.98734 37100 ft 444 kts 45°
2026-04-22 16:50 47.10601 24.05322 37096 ft 444 kts 45°
2026-04-22 16:50 47.14847 24.11909 37095 ft 444 kts 45°
2026-04-22 16:51 47.19087 24.18504 37099 ft 443 kts 46°
2026-04-22 16:51 47.23316 24.25103 37098 ft 443 kts 46°
2026-04-22 16:52 47.27540 24.31704 37106 ft 443 kts 46°
2026-04-22 16:52 47.31760 24.38317 37103 ft 443 kts 46°
2026-04-22 16:53 47.35956 24.44915 37099 ft 443 kts 46°
2026-04-22 16:53 47.40167 24.51554 37111 ft 443 kts 46°
2026-04-22 16:54 47.44373 24.58202 37109 ft 443 kts 46°
2026-04-22 16:54 47.48581 24.64854 37115 ft 442 kts 46°
2026-04-22 16:55 47.52779 24.71513 37120 ft 442 kts 46°
2026-04-22 16:55 47.56965 24.78178 37119 ft 442 kts 46°
2026-04-22 16:56 47.61152 24.84843 37124 ft 442 kts 46°
2026-04-22 16:56 47.65329 24.91521 37128 ft 441 kts 46°
2026-04-22 16:57 47.69498 24.98210 37131 ft 441 kts 46°
2026-04-22 16:57 47.73649 25.04809 37124 ft 440 kts 42°
2026-04-22 16:58 47.77501 25.09830 37121 ft 439 kts 40°
2026-04-22 16:58 47.82854 25.16758 37117 ft 439 kts 40°
2026-04-22 16:59 47.87448 25.22722 37112 ft 438 kts 40°
2026-04-22 16:59 47.92035 25.28694 37112 ft 437 kts 40°
2026-04-22 17:00 47.96612 25.34673 37103 ft 437 kts 40°
2026-04-22 17:00 48.00793 25.41227 37094 ft 437 kts 52°
2026-04-22 17:00 48.02598 25.44878 37095 ft 437 kts 52°
2026-04-22 17:01 48.06193 25.52216 37095 ft 438 kts 52°
2026-04-22 17:01 48.09760 25.59535 37081 ft 438 kts 53°
2026-04-22 17:02 48.13346 25.66911 37071 ft 438 kts 53°
2026-04-22 17:02 48.16933 25.74300 37070 ft 438 kts 53°
2026-04-22 17:03 48.20521 25.81696 37069 ft 438 kts 53°
2026-04-22 17:03 48.24101 25.89105 37069 ft 438 kts 53°
2026-04-22 17:04 48.27670 25.96528 37068 ft 438 kts 53°
2026-04-22 17:04 48.31233 26.03960 37074 ft 438 kts 53°
2026-04-22 17:05 48.34800 26.11403 37067 ft 438 kts 53°
2026-04-22 17:05 48.38356 26.18832 37060 ft 438 kts 53°
2026-04-22 17:06 48.41881 26.26225 37060 ft 437 kts 53°
2026-04-22 17:06 48.45425 26.33683 37055 ft 437 kts 53°
2026-04-22 17:07 48.48959 26.41138 37059 ft 437 kts 53°
2026-04-22 17:07 48.52478 26.48595 37057 ft 436 kts 53°
2026-04-22 17:08 48.55987 26.56047 37053 ft 436 kts 53°
2026-04-22 17:08 48.57741 26.59778 36928 ft 433 kts 53°
2026-04-22 17:08 48.59478 26.63482 36400 ft 432 kts 53°
2026-04-22 17:09 48.61209 26.67180 35857 ft 431 kts 53°
2026-04-22 17:09 48.62936 26.70867 35337 ft 429 kts 53°
2026-04-22 17:09 48.64073 26.73299 35007 ft 427 kts 53°
2026-04-22 17:09 48.66348 26.78168 34393 ft 422 kts 53°
2026-04-22 17:10 48.68037 26.81788 33868 ft 419 kts 53°
2026-04-22 17:10 48.69713 26.85380 33272 ft 416 kts 54°
2026-04-22 17:10 48.71353 26.88896 32704 ft 413 kts 54°
2026-04-22 17:10 48.73000 26.92434 32115 ft 409 kts 54°
2026-04-22 17:11 48.74629 26.95941 31528 ft 405 kts 54°
2026-04-22 17:11 48.76238 26.99413 30941 ft 401 kts 55°
2026-04-22 17:11 48.77835 27.02874 30348 ft 397 kts 55°
2026-04-22 17:11 48.79404 27.06276 29693 ft 393 kts 55°
2026-04-22 17:12 48.80971 27.09676 28874 ft 391 kts 55°
2026-04-22 17:12 48.82531 27.13066 27836 ft 394 kts 55°
2026-04-22 17:12 48.84100 27.16471 27020 ft 392 kts 54°
2026-04-22 17:12 48.85661 27.19859 26231 ft 391 kts 54°
2026-04-22 17:13 48.87218 27.23241 25458 ft 391 kts 54°
2026-04-22 17:13 48.88766 27.26611 24838 ft 388 kts 54°
2026-04-22 17:13 48.90314 27.29987 24041 ft 390 kts 54°
2026-04-22 17:13 48.91864 27.33383 23213 ft 391 kts 53°
2026-04-22 17:14 48.93389 27.36724 22414 ft 390 kts 53°
2026-04-22 17:14 48.94934 27.40104 21680 ft 387 kts 53°
2026-04-22 17:14 48.96463 27.43463 20997 ft 384 kts 53°
2026-04-22 17:14 48.97975 27.46796 20333 ft 382 kts 53°
2026-04-22 17:15 48.98996 27.49045 19896 ft 380 kts 53°
2026-04-22 17:15 49.00983 27.53411 19073 ft 378 kts 53°
2026-04-22 17:15 49.02477 27.56696 18479 ft 376 kts 53°
2026-04-22 17:15 49.03964 27.59971 17830 ft 374 kts 53°
2026-04-22 17:16 49.05434 27.63217 17084 ft 367 kts 53°
2026-04-22 17:16 49.06872 27.66406 15968 ft 363 kts 53°
2026-04-22 17:16 49.08301 27.69579 15101 ft 363 kts 53°
2026-04-22 17:16 49.09706 27.72709 14208 ft 354 kts 53°
2026-04-22 17:17 49.11092 27.75798 13112 ft 350 kts 53°
2026-04-22 17:17 49.12457 27.78843 12035 ft 345 kts 53°
2026-04-22 17:17 49.13756 27.81892 11014 ft 341 kts 58°
2026-04-22 17:17 49.14724 27.85181 10035 ft 340 kts 67°
2026-04-22 17:18 49.15284 27.88668 9255 ft 333 kts 78°
2026-04-22 17:18 49.15523 27.92070 9024 ft 310 kts 80°
2026-04-22 17:18 49.15739 27.95224 8842 ft 288 kts 79°
2026-04-22 17:18 49.15954 27.98210 8408 ft 279 kts 79°
2026-04-22 17:19 49.16386 28.04021 7252 ft 275 kts 79°
2026-04-22 17:19 49.16016 28.09830 6099 ft 278 kts 103°
2026-04-22 17:20 49.15113 28.14538 5947 ft 280 kts 104°
2026-04-22 17:20 49.14006 28.20267 5949 ft 281 kts 104°
2026-04-22 17:21 49.13271 28.24046 5723 ft 279 kts 104°
2026-04-22 17:21 49.12356 28.28792 5182 ft 277 kts 104°
2026-04-22 17:22 49.11297 28.34379 4540 ft 274 kts 104°
2026-04-22 17:22 49.10779 28.37179 4220 ft 273 kts 104°
2026-04-22 17:22 49.09762 28.42725 3948 ft 272 kts 104°
2026-04-22 17:23 49.09255 28.45512 3947 ft 272 kts 104°
2026-04-22 17:23 49.08256 28.50973 3948 ft 262 kts 104°
2026-04-22 17:23 49.07760 28.53652 3947 ft 262 kts 104°
2026-04-22 17:24 49.07264 28.56323 3948 ft 262 kts 104°
2026-04-22 17:24 49.06770 28.58974 3949 ft 262 kts 104°
2026-04-22 17:24 49.06273 28.61653 3950 ft 262 kts 104°
2026-04-22 17:24 49.05775 28.64323 3950 ft 262 kts 104°
2026-04-22 17:25 49.05451 28.67045 3878 ft 259 kts 92°
2026-04-22 17:25 49.05621 28.69728 3578 ft 253 kts 72°
2026-04-22 17:25 49.06186 28.72269 3254 ft 252 kts 66°
2026-04-22 17:25 49.06813 28.74721 3090 ft 244 kts 63°
2026-04-22 17:26 49.07760 28.76747 2987 ft 229 kts 38°
2026-04-22 17:26 49.09070 28.77942 2938 ft 211 kts 15°
2026-04-22 17:26 49.10467 28.78275 2947 ft 201 kts 355°
2026-04-22 17:26 49.11816 28.77849 2944 ft 197 kts 335°
2026-04-22 17:27 49.12963 28.76743 2939 ft 195 kts 317°
2026-04-22 17:27 49.13979 28.75360 2941 ft 195 kts 317°
2026-04-22 17:27 49.14972 28.74013 2941 ft 188 kts 317°
2026-04-22 17:27 49.15926 28.72718 2920 ft 181 kts 317°
2026-04-22 17:28 49.16844 28.71470 2764 ft 178 kts 317°
2026-04-22 17:28 49.17764 28.70219 2556 ft 173 kts 317°
2026-04-22 17:28 49.18633 28.69038 2341 ft 163 kts 317°
2026-04-22 17:28 49.19427 28.67958 2150 ft 144 kts 317°
2026-04-22 17:29 49.20150 28.66964 1934 ft 136 kts 316°
2026-04-22 17:29 49.20841 28.66001 1663 ft 133 kts 316°
2026-04-22 17:29 49.21534 28.65056 1499 ft 134 kts 317°
2026-04-22 17:29 49.22237 28.64115 1320 ft 135 kts 317°
2026-04-22 17:30 49.22947 28.63156 1106 ft 136 kts 316°
2026-04-22 17:30 49.23650 28.62185 984 ft 134 kts 316°
2026-04-22 17:30 49.24193 28.61447 981 ft 48 kts 319°
2026-04-22 17:30 49.24377 28.61206 974 ft 25 kts 319°
2026-04-22 17:31 49.24471 28.61036 977 ft 15 kts 264°
2026-04-22 17:31 49.24412 28.60915 977 ft 15 kts 230°
2026-04-22 17:31 49.24347 28.60792 978 ft 11 kts 242°
2026-04-22 17:31 49.24379 28.60704 977 ft 6 kts 317°
2026-04-22 17:32 49.24370 28.60655 974 ft 4 kts 233°
2026-04-22 17:32 49.24369 28.60652 974 ft 0 kts 233°